Content
SEND FEEDBACK

Daily
Averages
Monthly
Summary
United States of America

SAC CITY, IOWA


Home > North America > United States > Iowa
Elevation: 1270 feet     Latitude: 42 25N     Longitude: 095 00W

WEATHER
 
SELECT A DAY
Number of Records: 404,810;   Date Range: 4/23/95 - 7/26/14
 
SHARE

PRINT THIS DATA

[ ← Previous Day ]
WEATHER ALMANAC - JULY 4, 2014
[ Next Day → ]
[ °C ]   °F
Weather ElementAverageHighLow
Temperature69.5 °F78.8 °F (2:35 pm)59 °F (2:15 am)
Dewpoint59.9 °F66.2 °F (10:15 pm)53.6 °F (5:35 am)
Humidity72.6 %94 % (2:15 am)57 % (12:55 pm)
Barometer30.22 in30.28 in (7:55 am)30.14 in (6:35 pm)
Wind Speed13.2 mph20.7 mph (5:15 pm)
Wind Gust26.5 mph (2:15 pm)
Weather ElementAverage
Visibility9.9 mi
Wind DirectionSSE (160.1 °)

Weather ElementTotal
Precipitation---
Cooling Degree Days3.9 (Base 65)
Growing Degree Days18.9 (Base 50)
Averaged from 70 records on July 4, 2014
WEATHER CONDITIONS BREAKOUT
WIND DIRECTION BREAKOUT
WEATHER BY HOUR - JULY 4, 2014
[ °C ]   °F
Local TimeTemperatureDewpointHumidityBarometerVisibilityWind DirectionWind SpeedGust SpeedPrecipitationEventsConditions
12:35 AM60.8 °F57.2 °F88 %30.24 in10.0 miSSE (150°)6.9 mphOvercast
1:00 AM62.6 °F57.2 °F82 %30.25 in10.0 miSSE (150°)9.2 mphOvercast
1:15 AM62.6 °F57.2 °F82 %30.25 in10.0 miSSE (150°)8.1 mphOvercast
1:35 AM60.8 °F57.2 °F88 %30.25 in10.0 miSSE (150°)8.1 mphOvercast
1:55 AM60.8 °F57.2 °F88 %30.25 in10.0 miSSE (150°)8.1 mphScattered Clouds
2:15 AM59.0 °F57.2 °F94 %30.25 in10.0 miSSE (150°)8.1 mphClear
2:35 AM59.0 °F55.4 °F88 %30.25 in10.0 miSSE (150°)9.2 mphClear
2:55 AM59.0 °F55.4 °F88 %30.26 in10.0 miSSE (150°)5.8 mphPartly Cloudy
3:15 AM59.0 °F55.4 °F88 %30.26 in10.0 miSSE (150°)9.2 mphMostly Cloudy
3:35 AM59.0 °F55.4 °F88 %30.27 in10.0 miSE (140°)6.9 mphOvercast
3:55 AM59.0 °F55.4 °F88 %30.26 in10.0 miSSE (150°)9.2 mphOvercast
4:15 AM59.0 °F55.4 °F88 %30.26 in10.0 miSSE (150°)9.2 mphOvercast
4:35 AM60.8 °F55.4 °F82 %30.26 in10.0 miSSE (160°)10.4 mphOvercast
4:55 AM60.8 °F55.4 °F82 %30.26 in10.0 miSouth (170°)9.2 mphMostly Cloudy
5:15 AM59.0 °F55.4 °F88 %30.26 in10.0 miSSE (160°)9.2 mphScattered Clouds
5:35 AM60.8 °F53.6 °F77 %30.27 in10.0 miSSE (160°)9.2 mphClear
5:55 AM59.0 °F55.4 °F88 %30.27 in10.0 miSE (140°)8.1 mphPartly Cloudy
6:15 AM59.0 °F55.4 °F88 %30.27 in10.0 miSE (140°)8.1 mphPartly Cloudy
6:35 AM59.0 °F55.4 °F88 %30.27 in10.0 miSSE (150°)10.4 mphPartly Cloudy
6:55 AM60.8 °F55.4 °F82 %30.27 in10.0 miSSE (150°)10.4 mphClear
7:15 AM60.8 °F55.4 °F82 %30.27 in9.0 miSSE (150°)9.2 mphClear
7:35 AM62.6 °F55.4 °F77 %30.27 in10.0 miSSE (160°)11.5 mphClear
7:55 AM62.6 °F55.4 °F77 %30.28 in10.0 miSSE (150°)10.4 mphClear
8:15 AM64.4 °F55.4 °F73 %30.28 in10.0 miSSE (150°)10.4 mphClear
8:35 AM64.4 °F57.2 °F77 %30.28 in10.0 miSouth (170°)11.5 mphClear
8:55 AM66.2 °F57.2 °F73 %30.28 in10.0 miSouth (170°)13.8 mphClear
9:15 AM68.0 °F57.2 °F68 %30.28 in10.0 miSouth (170°)12.7 mphClear
9:35 AM69.8 °F59.0 °F68 %30.27 in10.0 miSSE (160°)17.3 mphClear
9:55 AM69.8 °F57.2 °F64 %30.27 in9.0 miSouth (170°)15.0 mphClear
10:15 AM71.6 °F57.2 °F60 %30.27 in10.0 miSouth (170°)15.0 mph24.2 mphClear
10:35 AM71.6 °F57.2 °F60 %30.26 in10.0 miSouth (170°)18.4 mphClear
10:55 AM71.6 °F59.0 °F64 %30.26 in10.0 miSouth (180°)16.1 mphClear
11:15 AM73.4 °F59.0 °F61 %30.26 in10.0 miSouth (170°)17.3 mphClear
11:35 AM73.4 °F59.0 °F61 %30.26 in10.0 miSouth (180°)15.0 mph24.2 mphClear
11:55 AM75.2 °F60.8 °F61 %30.26 in10.0 miSouth (180°)15.0 mph21.9 mphClear
12:15 PM75.2 °F60.8 °F61 %30.25 in10.0 miSouth (170°)17.3 mphClear
12:35 PM75.2 °F60.8 °F61 %30.25 in10.0 miSouth (180°)16.1 mphClear
12:55 PM77.0 °F60.8 °F57 %30.24 in10.0 miSouth (180°)13.8 mphClear
1:15 PM77.0 °F60.8 °F57 %30.23 in10.0 miSouth (170°)18.4 mphClear
1:35 PM77.0 °F62.6 °F61 %30.23 in10.0 miSouth (180°)17.3 mphClear
1:55 PM77.0 °F60.8 °F57 %30.22 in10.0 miSouth (180°)16.1 mphClear
2:15 PM77.0 °F62.6 °F61 %30.21 in10.0 miSouth (170°)16.1 mph26.5 mphClear
2:35 PM78.8 °F62.6 °F57 %30.21 in8.0 miSSE (150°)18.4 mph25.3 mphClear
2:55 PM78.8 °F62.6 °F57 %30.20 in10.0 miSSE (160°)18.4 mphClear
3:15 PM78.8 °F62.6 °F57 %30.20 in10.0 miSSE (160°)19.6 mph26.5 mphClear
3:35 PM78.8 °F62.6 °F57 %30.20 in10.0 miSSE (160°)18.4 mph25.3 mphClear
3:55 PM78.8 °F62.6 °F57 %30.19 in10.0 miSouth (170°)17.3 mphClear
4:15 PM78.8 °F62.6 °F57 %30.19 in10.0 miSouth (170°)16.1 mphClear
4:35 PM78.8 °F64.4 °F61 %30.19 in10.0 miSouth (180°)16.1 mph23.0 mphClear
4:55 PM78.8 °F62.6 °F57 %30.18 in10.0 miSSE (160°)19.6 mph26.5 mphClear
5:15 PM78.8 °F62.6 °F57 %30.17 in10.0 miSSE (160°)20.7 mphClear
5:35 PM77.0 °F62.6 °F61 %30.16 in10.0 miSouth (180°)17.3 mphClear
5:55 PM77.0 °F62.6 °F61 %30.15 in10.0 miSSE (160°)20.7 mph26.5 mphClear
6:15 PM77.0 °F62.6 °F61 %30.15 in10.0 miSSE (160°)18.4 mph24.2 mphClear
6:35 PM77.0 °F62.6 °F61 %30.14 in10.0 miSSE (160°)17.3 mphClear
6:55 PM77.0 °F64.4 °F65 %30.15 in10.0 miSSE (160°)13.8 mph23.0 mphPartly Cloudy
7:15 PM77.0 °F64.4 °F65 %30.15 in10.0 miSSE (150°)13.8 mph24.2 mphScattered Clouds
7:35 PM75.2 °F62.6 °F65 %30.15 in10.0 miSSE (150°)17.3 mphScattered Clouds
7:55 PM75.2 °F64.4 °F69 %30.14 in10.0 miSSE (150°)16.1 mph21.9 mphMostly Cloudy
8:15 PM75.2 °F64.4 °F69 %30.14 in10.0 miSSE (150°)15.0 mph23.0 mphScattered Clouds
8:35 PM73.4 °F64.4 °F73 %30.14 in10.0 miSSE (150°)13.8 mphPartly Cloudy
8:55 PM71.6 °F64.4 °F78 %30.15 in10.0 miSSE (160°)11.5 mph17.3 mphMostly Cloudy
9:15 PM71.6 °F64.4 °F78 %30.14 in10.0 miSSE (150°)10.4 mphOvercast
9:35 PM71.6 °F64.4 °F78 %30.14 in10.0 miSSE (160°)11.5 mphOvercast
10:15 PM69.8 °F66.2 °F88 %30.15 in10.0 miSSE (160°)11.5 mphOvercast
10:35 PM69.8 °F66.2 °F88 %30.14 in10.0 miSouth (170°)12.7 mphOvercast
10:55 PM69.8 °F66.2 °F88 %30.14 in10.0 miSSE (160°)12.7 mph19.6 mphMostly Cloudy
11:15 PM69.8 °F64.4 °F83 %30.15 in10.0 miSSE (160°)10.4 mphOvercast
11:35 PM69.8 °F64.4 °F83 %30.16 in10.0 miSSE (160°)9.2 mphOvercast
11:55 PM69.8 °F64.4 °F83 %30.16 in10.0 miSE (140°)9.2 mphOvercast
Hourly data recorded from KSLB, located miles away from Sac City, Iowa







STORIES FROM OUR PARTNERS